Flag for Brazil Weather past 2 weeks in Curitiba, Paraná, Brazil

Now
72 °F

Sunny.


Feels Like: 74 °F
Forecast: 62 / 82 °F
Wind: 6 mph from Northwest

Location: Curitiba Aeroporto

Current Time: Jan 26, 2015 at 10:34:20 AM

Latest Report: Jan 26, 2015 at 10:00 AM


Visibility: 10 mi

Pressure: 30.07 "Hg

Humidity: 73%

Dew point: 63 °F

Location of CuritibaLocation

Historic Weather in Curitiba — Graph

°F

Curitiba temperature yesterday

Maximum temperature yesterday: 84 °F (at 2:00 PM)
Minimum temperature yesterday: 64 °F (at 10:00 PM)
Average temperature yesterday: 72 °F

Past Weeks' High & Low Weather Summary

 TemperatureHumidityPressure
High91 °F (Jan 12, 5:00 PM)100% (Jan 12, 6:00 AM)30.21 "Hg (Jan 12, 6:00 AM)
Low34 °F (Jan 19, 5:00 PM)24% (Jan 12, 5:00 PM)29.95 "Hg (Jan 20, 5:00 PM)
Average72 °F75%30.09 "Hg
* Reported Jan 11 9:00 AM — Jan 26 9:00 AM, Curitiba, Weather by CustomWeather, © 2014

Note: Actual official high and low records may vary slightly from our data, if they occured in-between our weather recording intervals... More about our weather records

Advertising

Curitiba weather history for previous 24 hours

 ConditionsComfort  
Time TempWeatherWind HumidityBarometerVisibility
9:00 AM
Jan 26
68 °FSunny.6 mph78%30.07 "Hg10 mi
8:00 AM63 °FSunny.5 mph94%30.07 "Hg10 mi
7:00 AM61 °FScattered clouds.3 mph94%30.04 "HgN/A
6:00 AM61 °FPassing clouds.3 mph94%30.04 "HgN/A
5:00 AM63 °FPassing clouds.3 mph88%30.04 "HgN/A
4:00 AM64 °FPassing clouds.6 mph88%30.04 "HgN/A
3:00 AM64 °FClear.3 mph88%30.04 "Hg10 mi
2:00 AM64 °FClear.2 mph88%30.04 "Hg10 mi
1:00 AM64 °FClear.No wind88%30.07 "Hg10 mi
12:00 AM64 °FClear.3 mph88%30.07 "Hg10 mi
11:00 PM
Jan 25
64 °FPassing clouds.6 mph88%30.07 "HgN/A
10:00 PM64 °FPassing clouds.8 mph88%30.07 "HgN/A
9:00 PM66 °FThunderstorms. Partly cloudy.10 mph83%N/A6 mi
8:00 PM68 °FLight rain. Broken clouds.15 mph73%N/A5 mi
7:00 PM72 °FScattered clouds.6 mph78%30.01 "HgN/A
6:00 PM73 °FScattered clouds.10 mph69%30.01 "HgN/A
5:00 PM75 °FScattered clouds.10 mph65%29.98 "HgN/A
4:00 PM81 °FPartly sunny.9 mph51%30.01 "HgN/A
3:00 PM81 °FPartly sunny.15 mph48%30.01 "HgN/A
2:00 PM84 °FPartly sunny.13 mph45%30.01 "HgN/A
1:00 PM82 °FPartly sunny.9 mph42%30.04 "HgN/A
12:00 PM81 °FPartly sunny.8 mph51%30.04 "HgN/A
11:00 AM79 °FScattered clouds.9 mph58%30.07 "HgN/A
10:00 AM75 °FSunny.8 mph69%30.07 "Hg10 mi
Weather by CustomWeather, © 2014

See weather overviewHow to use our weather pages